Weather History for Clinton, BC

Change the Weather History Date:

Tuesday, June 17, 2014

  Actual Average Record
Temperature  
Mean Temperature 54 °F -  
Max Temperature 69 °F 64 °F 80 °F (2003)
Min Temperature 38 °F 40 °F 37 °F (2001)
Degree Days  
Heating Degree Days 12    
Growing Degree Days 4 (Base 50)    
Moisture  
Dew Point 42 °F    
Average Humidity 69    
Maximum Humidity 100    
Minimum Humidity 23    
Precipitation  
Precipitation 0.02 in - - ()
Sea Level Pressure  
Sea Level Pressure 29.99 in    
Wind  
Wind Speed 3 mph ()    
Max Wind Speed 8 mph    
Max Gust Speed -    
Visibility 9.0 miles    
Events      
Averages and records for this station are not official NWS values.
T = Trace of Precipitation, MM = Missing Value Source: Averaged Metar Reports

Daily Weather History Graph

Daily Weather History Graph

Search for Another Location

Airport:

Trip Planner

Search our weather history database for the weather conditions in past years. The results will help you decide how hot, cold, wet, or windy it might be!

Date:

Astronomy

Jun. 17, 2014 Rise Set
Actual Time 4:50 AM PDT 9:23 PM PDT
Civil Twilight 4:03 AM PDT 10:10 PM PDT
Nautical Twilight 2:51 AM PDT 11:22 PM PDT
Astronomical Twilight 1:39 AM PDT 12:34 AM PDT
Moon No Moon Rise 10:44 AM PDT (6/17)
Length of Visible Light 18h 07m
Length of Day
16h 33m
Waning Gibbous, 72% of the Moon is Illuminated
Jun 17
Waning Gibbous
Jun 19
Last Quarter
Jun 27
New
Jul 5
First Quarter
Jul 12
Full

Hourly Weather History & Observations

Time (PDT) Temp. Windchill Dew Point Humidity Pressure Visibility Wind Dir Wind Speed Gust Speed Precip Events Conditions
12:00 AM 46.4 °F - 44.6 °F 93% 29.96 in 9.0 mi NE 2.3 mph - N/A   Unknown
12:09 AM 46.4 °F - 44.6 °F 93% 29.93 in 9.0 mi Calm Calm - N/A   Unknown
12:16 AM 46.4 °F - 44.6 °F 93% 29.93 in 9.0 mi Calm Calm - N/A   Unknown
1:00 AM 44.6 °F - 42.8 °F 93% 29.97 in 9.0 mi WSW 2.3 mph - N/A   Unknown
2:00 AM 42 °F - 40 °F 90% 29.98 in 9 mi WSW 2.3 mph - -  
2:00 AM 41.0 °F - 41.0 °F 100% 29.98 in 9.0 mi SW 2.3 mph - N/A   Unknown
3:04 AM 39.2 °F - 37.4 °F 93% 29.96 in 9.0 mi SW 2.3 mph - N/A   Unknown
3:48 AM 39.2 °F - 37.4 °F 93% 29.97 in 9.0 mi WSW 2.3 mph - N/A   Unknown
4:00 AM 39.2 °F 37.0 °F 37.4 °F 93% 30.03 in 9.0 mi WSW 3.5 mph - N/A   Unknown
4:10 AM 39.2 °F 37.0 °F 37.4 °F 93% 29.98 in 9.0 mi WSW 3.5 mph - N/A   Unknown
4:47 AM 41.0 °F 38.0 °F 41.0 °F 100% 29.98 in 9.0 mi SW 4.6 mph - N/A   Unknown
5:00 AM 43 °F - 42 °F 94% 30.04 in 9 mi WSW 3.5 mph - -  
5:00 AM 42.8 °F 41.1 °F 42.8 °F 100% 30.04 in 9.0 mi SW 3.5 mph - N/A   Unknown
6:00 AM 44.6 °F - 44.6 °F 100% 30.02 in 9.0 mi Calm Calm - N/A   Unknown
7:00 AM 48.2 °F - 46.4 °F 93% 30.02 in 9.0 mi Calm Calm - N/A   Unknown
8:00 AM 53 °F - 48 °F 79% 30.01 in 9 mi East 2.3 mph - -  
8:00 AM 53.6 °F - 48.2 °F 82% 30.01 in 9.0 mi Calm Calm - N/A   Unknown
8:49 AM 55.4 °F - 48.2 °F 77% 30.00 in 9.0 mi East 5.8 mph - N/A   Unknown
9:00 AM 57.2 °F - 46.4 °F 67% 30.02 in 9.0 mi North 5.8 mph - N/A   Unknown
9:11 AM 57.2 °F - 46.4 °F 67% 30.00 in 9.0 mi North 8.1 mph - N/A   Unknown
10:00 AM 57.2 °F - 44.6 °F 63% 30.04 in 9.0 mi NNE 4.6 mph - N/A   Unknown
11:00 AM 62 °F - 45 °F 43% 30.03 in 9 mi NNW 4.6 mph - -  
11:00 AM 60.8 °F - 44.6 °F 55% 30.03 in 9.0 mi North 4.6 mph - N/A   Unknown
12:00 PM 60.8 °F - 42.8 °F 52% 30.03 in 9.0 mi North 4.6 mph - N/A   Unknown
1:00 PM 66.2 °F - 46.4 °F 49% 30.02 in 9.0 mi North 8.1 mph - N/A   Unknown
2:00 PM 66 °F - 41 °F 29% 30.01 in 9 mi North 8.1 mph - -  
2:00 PM 66.2 °F - 41.0 °F 40% 30.01 in 9.0 mi NNE 8.1 mph - N/A   Unknown
3:00 PM 68.0 °F - 41.0 °F 37% 30.00 in 9.0 mi NW 6.9 mph - N/A   Unknown
4:00 PM 68.0 °F - 39.2 °F 35% 29.99 in 9.0 mi North 5.8 mph - N/A   Unknown
5:00 PM 69 °F - 39 °F 23% 29.97 in 9 mi North 6.9 mph - -  
5:00 PM 69.8 °F - 39.2 °F 33% 29.97 in 9.0 mi North 6.9 mph - N/A   Unknown
6:00 PM 68.0 °F - 39.2 °F 35% 29.96 in 9.0 mi North 4.6 mph - N/A   Unknown
7:00 PM 68.0 °F - 39.2 °F 35% 29.95 in 9.0 mi NNW 5.8 mph - N/A   Unknown
8:00 PM 66 °F - 40 °F 27% 29.94 in 9 mi North 4.6 mph - -  
8:00 PM 66.2 °F - 41.0 °F 40% 29.94 in 9.0 mi North 4.6 mph - N/A   Unknown
9:00 PM 55.4 °F - 42.8 °F 63% 29.95 in 9.0 mi NW 3.5 mph - N/A   Unknown
10:00 PM 51.8 °F - 42.8 °F 71% 29.96 in 9.0 mi NNW 4.6 mph - N/A   Unknown
11:00 PM 49 °F - 42 °F 70% 29.96 in 9 mi NNW 2.3 mph - -  
11:00 PM 48.2 °F - 42.8 °F 82% 29.96 in 9.0 mi Calm Calm - N/A   Unknown